Waarnemingen

Advertentie
Mijn weer
Elsenborn, België (6496): temperatuur & dauwpunt: 12.10.2019 03:00:00 - 18.10.2019 03:00:00 (CEST)Elsenborn, België (6496): windsnelheid & windstoten: 12.10.2019 03:00:00 - 18.10.2019 03:00:00 (CEST)Elsenborn, België (6496): windrichting: 12.10.2019 03:00:00 - 18.10.2019 03:00:00 (CEST)Elsenborn, België (6496): luchtdruk: 12.10.2019 03:00:00 - 18.10.2019 03:00:00 (CEST)Elsenborn, België (6496): zicht: 12.10.2019 03:00:00 - 18.10.2019 03:00:00 (CEST)
Datum & Tijd tt [°C] td [°C] ff [km/u] ff [kn] fx [km/u] fx [kn] dd ppp [hPa] vv [km]
18.10.2019 03:00:00 10,1 9,7 11 6 25 14 ZZW 1010,0 20
18.10.2019 02:00:00 10,0 9,4 13 7 - - ZZW 1010,6 10
18.10.2019 01:00:00 10,1 9,4 11 6 36 19 ZZW 1011,0 20
18.10.2019 00:00:00 10,6 9,7 14 8 36 19 ZZW 1010,7 20
17.10.2019 23:00:00 10,9 10,2 14 8 - - ZW 1011,0 20
17.10.2019 22:00:00 11,3 11,0 7 4 25 14 ZZW 1010,7 5
17.10.2019 21:00:00 11,3 11,1 14 8 25 14 ZZW 1010,7 10
17.10.2019 20:00:00 11,3 11,0 14 8 - - ZZW 1010,7 3,0
17.10.2019 19:00:00 11,3 10,9 11 6 29 16 Z 1010,3 19
17.10.2019 18:00:00 11,4 10,8 11 6 22 12 ZZW 1010,6 20
17.10.2019 17:00:00 11,6 11,3 7 4 - - ZZW 1010,7 19
17.10.2019 16:00:00 11,8 11,4 13 7 29 16 ZZW 1011,1 10
17.10.2019 15:00:00 11,8 11,2 14 8 29 16 ZZW 1011,3 20
17.10.2019 14:00:00 11,8 11,4 14 8 - - ZZW 1011,3 4,8
17.10.2019 13:00:00 11,5 11,3 7 4 22 12 ZZW 1011,8 2,5
17.10.2019 12:00:00 11,1 10,4 11 6 25 14 ZW 1012,2 6
17.10.2019 11:00:00 11,3 9,9 18 10 - - ZW 1012,0 20
17.10.2019 10:00:00 11,3 10,2 18 10 36 19 ZW 1011,6 20
17.10.2019 09:00:00 10,9 10,5 18 10 36 19 ZW 1011,0 20
17.10.2019 08:00:00 11,0 10,7 22 12 - - ZW 1010,3 7
17.10.2019 07:00:00 10,8 10,6 14 8 29 16 ZW 1009,8 1,7
17.10.2019 06:00:00 10,8 10,4 11 6 29 16 ZZW 1010,0 8
17.10.2019 05:00:00 10,6 10,4 11 6 - - ZW 1009,8 2,8
17.10.2019 04:00:00 10,6 10,2 11 6 29 16 ZZW 1010,0 6
17.10.2019 03:00:00 10,6 10,2 14 8 32 18 ZZW 1009,8 9
17.10.2019 02:00:00 10,6 10,1 14 8 - - ZZW 1010,1 4,7
17.10.2019 01:00:00 10,6 9,9 14 8 32 18 ZZW 1009,8 8
17.10.2019 00:00:00 10,6 9,9 11 6 32 18 ZZW 1010,0 16
16.10.2019 23:00:00 10,6 10,1 11 6 - - ZZW 1010,2 19
16.10.2019 22:00:00 10,8 10,0 14 8 25 14 ZZW 1010,3 20
16.10.2019 21:00:00 10,6 10,1 11 6 29 16 Z 1010,3 20
16.10.2019 20:00:00 10,6 10,1 11 6 - - ZZW 1010,6 20
16.10.2019 19:00:00 10,6 10,2 18 10 32 18 ZZW 1010,6 3,5
16.10.2019 18:00:00 10,6 10,1 14 8 40 21 ZW 1010,2 2,9
16.10.2019 17:00:00 10,3 9,9 18 10 - - ZW 1010,2 17
16.10.2019 16:00:00 10,1 9,7 18 10 36 19 ZW 1010,2 11
16.10.2019 15:00:00 10,1 9,7 18 10 36 19 ZZW 1010,3 2,6
16.10.2019 14:00:00 9,8 9,6 14 8 - - ZZW 1010,5 5
16.10.2019 13:00:00 9,4 9,1 14 8 36 19 ZZW 1011,0 13
16.10.2019 12:00:00 9,1 8,5 14 8 36 19 Z 1011,2 11
16.10.2019 11:00:00 9,0 8,4 14 8 - - Z 1011,7 19
16.10.2019 10:00:00 8,8 8,2 14 8 25 14 ZZW 1011,7 20
16.10.2019 09:00:00 7,8 7,4 11 6 22 12 ZZW 1012,0 11
16.10.2019 08:00:00 7,1 6,8 7 4 - - Z 1011,7 12
16.10.2019 07:00:00 7,9 7,3 14 8 29 16 ZW 1011,7 17
16.10.2019 06:00:00 8,1 7,6 14 8 32 18 ZW 1011,6 11
16.10.2019 05:00:00 8,3 7,6 14 8 - - ZW 1011,5 20
16.10.2019 04:00:00 8,3 7,5 14 8 25 14 WZW 1011,2 20
16.10.2019 03:00:00 8,6 8,2 11 6 25 14 WZW 1011,2 15
16.10.2019 02:00:00 8,8 8,4 14 8 - - ZW 1011,2 13
16.10.2019 01:00:00 9,0 8,6 11 6 25 14 ZW 1010,8 10
16.10.2019 00:00:00 9,1 8,8 14 8 29 16 WZW 1010,7 14
15.10.2019 23:00:00 9,1 8,7 11 6 - - WZW 1010,7 12
15.10.2019 22:00:00 9,0 9,0 11 6 36 19 WZW 1010,3 8
15.10.2019 21:00:00 8,8 8,5 18 10 36 19 W 1009,8 6
15.10.2019 20:00:00 10,5 10,2 4 2 - - N 1008,5 19
15.10.2019 19:00:00 10,6 10,5 4 2 14 8 N 1007,8 11
15.10.2019 18:00:00 10,8 10,6 7 4 18 10 ZZW 1007,3 10
15.10.2019 17:00:00 11,5 11,1 11 6 - - ZW 1007,1 8
15.10.2019 16:00:00 12,0 11,3 9 5 14 8 WZW 1007,2 10
15.10.2019 15:00:00 12,2 11,4 7 4 22 12 WZW 1007,2 20
15.10.2019 14:00:00 12,1 11,5 14 8 - - ZW 1007,2 17
15.10.2019 13:00:00 11,8 11,3 13 7 22 12 ZW 1008,1 9
15.10.2019 12:00:00 12,1 11,5 5 3 11 6 ZZW 1007,6 6
15.10.2019 11:00:00 12,3 11,0 7 4 - - ZW 1007,1 20
15.10.2019 10:00:00 12,1 11,1 4 2 14 8 N 1007,1 20
15.10.2019 09:00:00 11,8 10,9 7 4 14 8 ZW 1007,2 14
15.10.2019 08:00:00 12,3 10,9 7 4 - - ZZW 1006,7 19
15.10.2019 07:00:00 12,0 10,7 7 4 18 10 Z 1006,5 20
15.10.2019 06:00:00 12,3 10,6 7 4 18 10 Z 1006,7 20
15.10.2019 05:00:00 12,8 10,8 7 4 - - Z 1007,0 20
15.10.2019 04:00:00 13,1 10,6 11 6 18 10 Z 1007,1 20
15.10.2019 03:00:00 13,8 11,3 7 4 32 18 ZZW 1007,6 20
15.10.2019 02:00:00 14,5 11,2 18 10 - - ZZW 1007,5 20
15.10.2019 01:00:00 15,3 11,2 14 8 29 16 ZZW 1007,5 20
15.10.2019 00:00:00 16,0 11,3 14 8 29 16 Z 1007,3 20
14.10.2019 23:00:00 17,1 11,3 14 8 - - Z 1007,2 20
14.10.2019 22:00:00 17,1 11,3 11 6 29 16 Z 1007,8 20
14.10.2019 21:00:00 17,1 11,1 11 6 29 16 Z 1008,0 20
14.10.2019 20:00:00 16,8 11,5 11 6 - - Z 1008,2 20
14.10.2019 19:00:00 16,7 11,7 11 6 29 16 Z 1008,1 20
14.10.2019 18:00:00 17,7 12,1 7 4 29 16 Z 1008,1 20
14.10.2019 17:00:00 18,5 12,4 18 10 - - Z 1008,5 20
14.10.2019 16:00:00 18,7 13,0 18 10 36 19 Z 1008,7 20
14.10.2019 15:00:00 18,2 12,8 18 10 40 21 Z 1009,6 20
14.10.2019 14:00:00 19,0 12,0 14 8 - - Z 1009,7 20
14.10.2019 13:00:00 18,1 12,4 14 8 32 18 Z 1011,1 20
14.10.2019 12:00:00 17,1 12,5 14 8 25 14 Z 1011,7 20
14.10.2019 11:00:00 14,9 11,9 11 6 - - Z 1012,8 20
14.10.2019 10:00:00 13,9 11,6 14 8 29 16 Z 1013,1 20
14.10.2019 09:00:00 12,6 11,3 11 6 22 12 Z 1013,5 20
14.10.2019 08:00:00 13,0 12,7 4 2 - - N 1013,2 14
14.10.2019 07:00:00 12,4 12,3 2 1 7 4 - 1013,7 3,1
14.10.2019 06:00:00 13,0 13,0 2 1 4 2 - 1013,7 0,6
14.10.2019 05:00:00 13,6 13,6 4 2 - - N 1014,0 7
14.10.2019 04:00:00 13,8 13,6 4 2 7 4 - 1014,0 6
14.10.2019 03:00:00 13,3 13,0 2 1 7 4 - 1014,2 3,3
14.10.2019 02:00:00 14,1 13,1 4 2 - - N 1013,7 19
14.10.2019 01:00:00 14,7 13,1 7 4 25 14 ZW 1013,2 20
14.10.2019 00:00:00 15,6 13,7 11 6 25 14 ZW 1012,7 20
13.10.2019 23:00:00 16,2 13,4 14 8 - - ZW 1012,2 20
13.10.2019 22:00:00 16,0 14,0 7 4 29 16 ZZW 1011,7 20
13.10.2019 21:00:00 17,2 13,6 11 6 29 16 Z 1010,7 20
13.10.2019 20:00:00 17,1 13,8 11 6 - - ZZW 1010,2 20
13.10.2019 19:00:00 18,0 14,2 11 6 29 16 ZZW 1009,7 20
13.10.2019 18:00:00 19,6 13,4 14 8 40 21 ZZW 1008,8 20
13.10.2019 17:00:00 20,2 13,7 22 12 - - ZZW 1008,6 20
13.10.2019 16:00:00 19,8 13,9 18 10 40 21 Z 1008,3 20
13.10.2019 15:00:00 20,0 14,2 18 10 40 21 ZZW 1008,7 20
13.10.2019 14:00:00 19,2 14,0 18 10 - - Z 1009,1 20
13.10.2019 13:00:00 18,4 13,6 14 8 32 18 ZZW 1009,5 20
13.10.2019 12:00:00 17,0 13,4 18 10 40 21 ZZW 1010,2 20
13.10.2019 11:00:00 15,9 13,0 18 10 - - ZZW 1010,5 20
13.10.2019 10:00:00 14,3 12,8 11 6 29 16 ZZW 1011,2 20
13.10.2019 09:00:00 13,8 12,7 11 6 25 14 Z 1011,6 20
13.10.2019 08:00:00 13,5 12,8 7 4 - - ZZW 1011,2 16
13.10.2019 07:00:00 14,0 13,3 11 6 25 14 Z 1011,2 15
13.10.2019 06:00:00 14,3 13,7 11 6 29 16 Z 1011,1 12
13.10.2019 05:00:00 14,3 13,8 11 6 - - Z 1011,0 10
13.10.2019 04:00:00 14,6 13,9 14 8 29 16 Z 1011,2 13
13.10.2019 03:00:00 14,5 13,9 11 6 25 14 ZZW 1011,5 13
13.10.2019 02:00:00 14,0 13,3 7 4 - - Z 1012,0 13
13.10.2019 01:00:00 13,8 13,0 7 4 14 8 ZW 1012,2 16
13.10.2019 00:00:00 13,6 12,7 4 2 18 10 N 1012,2 20
12.10.2019 23:00:00 13,5 12,3 11 6 - - Z 1012,2 19
12.10.2019 22:00:00 13,3 11,9 11 6 25 14 Z 1011,7 20
12.10.2019 21:00:00 13,5 11,7 11 6 22 12 ZZW 1011,7 10
12.10.2019 20:00:00 13,5 11,2 11 6 - - Z 1011,7 20
12.10.2019 19:00:00 13,8 11,3 14 8 32 18 Z 1011,2 20
12.10.2019 18:00:00 14,6 11,7 14 8 32 18 ZZW 1011,1 20
12.10.2019 17:00:00 14,7 12,1 15 8 - - ZW 1011,3 10
12.10.2019 16:00:00 15,3 11,1 18 10 43 23 ZW 1011,8 20
12.10.2019 15:00:00 13,3 8,3 14 8 32 18 ZZW 1012,5 20
12.10.2019 14:00:00 14,8 10,6 14 8 - - ZW 1012,2 20
12.10.2019 13:00:00 13,5 10,3 14 8 32 18 ZZW 1012,7 20
12.10.2019 12:00:00 5,7 3,5 14 8 32 18 ZW 1014,3 20
12.10.2019 11:00:00 11,5 10,0 11 6 - - ZZW 1012,7 20
12.10.2019 10:00:00 11,1 9,8 18 10 29 16 ZW 1012,3 20
12.10.2019 09:00:00 10,5 9,5 14 8 29 16 ZW 1012,0 20
12.10.2019 08:00:00 10,3 9,0 14 8 - - ZW 1011,3 20
12.10.2019 07:00:00 10,3 8,8 14 8 29 16 ZW 1011,2 20
12.10.2019 06:00:00 10,6 8,8 18 10 32 18 ZZW 1011,0 20
12.10.2019 05:00:00 10,8 8,9 18 10 - - ZZW 1011,2 20
12.10.2019 04:00:00 10,5 8,9 18 10 32 18 ZZW 1011,3 20
12.10.2019 03:00:00 10,8 9,0 14 8 36 19 ZW 1011,6 20

tt = temperatuur
td = dauwpunt
ff = windsnelheid
fx = windstoten
dd = windrichting
ppp = luchtdruk
vv = zicht

Weerstations in de omgeving